User: anonymous   Login
Location: Long Point Provincial Park
(42.5794°N, 80.4103°W)
Time: 12:55:32
(UTC-04:00)
Language:

Iridium 19 - Orbit

View from above orbital plane
View from above orbital plane
View from above satellite
View from above satellite

Ground track
Ground track

The orbit data is extracted from the following two-line orbital elements,

1 24965U 97056A   16120.53464402 -.00000005  00000-0 -87562-5 0  9991
2 24965  86.3943 131.6462 0002290  86.1469 273.9988 14.34218249973262
Epoch (UTC): 29 April 2016 12:49:53
Eccentricity: 0.0002290
inclination: 86.3943°
perigee height: 776 km
apogee height: 779 km
right ascension of ascending node: 131.6462°
argument of perigee: 86.1469°
revolutions per day: 14.34218249
mean anomaly at epoch: 273.9988°
orbit number at epoch: 97326

The dashed part of the orbit path shows where the satellite is in the earth's shadow,  

DLR